Regional Weather Roundup
Issued by NWS

Home | Current Version | Previous Version | Graphics & Text | Print | Product List | Glossary On
Versions: 1 2 3 4 5 6 7 8 9 10 11 12 13 14 15 16 17 18 19 20 21 22 23 24 25 26 27 28 29 30 31 32 33 34 35 36 37 38 39 40 41 42 43 44 45 46 47 48 49 50
000
ASUS45 KABQ 230510
RWRNM
WEATHER ROUNDUP FOR NEW MEXICO
NATIONAL WEATHER SERVICE ALBUQUERQUE NM
1100 PM MDT FRI AUG 22 2014

NOTE: "FAIR" MEANS FEW OR NO CLOUDS BELOW 12,000 FEET AGL WITH NO
       SIGNIFICANT WEATHER OR OBSTRUCTIONS TO VISION.

      THIS PRODUCT IS RELEASED AS TWO VERSIONS.  ONE VERSION NEAR
      THE TOP OF THE HOUR CONTAINING PRELIMINARY DATA FROM ALBUQUERQUE
      AND OTHER STATIONS.  A FINAL VERSION WITH ADDITIONAL DATA IS
      ISSUED ABOUT 10 MINUTES AFTER THE HOUR.

NMZ501-503-504-510>518-230600-
NORTHWEST PLATEAU/NORTHCENTRAL MOUNTAINS

CITY           SKY/WX    TMP DP  RH WIND       PRES   REMARKS
FARMINGTON     PTCLDY    58  52  80 E8        30.13F
LOS ALAMOS     CLEAR     56  49  77 CALM      30.25S
SANTA FE       PTCLDY    57  54  89 SW3       30.19F
TAOS           MOCLDY    52  46  82 E6        30.25F
ANGEL FIRE     CLOUDY    48  45  87 CALM      30.31S

$$
NMZ402-403-502-505>509-230600-
WESTCENTRAL MOUNTAINS/SOUTHWEST MOUNTAINS

CITY           SKY/WX    TMP DP  RH WIND       PRES   REMARKS
GALLUP         PTCLDY    61  46  57 SW6       30.19S
SILVER CITY    MOCLDY    64  59  82 NW3       30.19F

$$
NMZ407-409-411-412-230600-
SOUTHERN DESERTS

CITY           SKY/WX    TMP DP  RH WIND       PRES   REMARKS
LORDSBURG      MOCLDY    70  57  64 S6        30.11F
DEMING         PTCLDY    68  61  78 SW9       30.11F
LAS CRUCES     MOCLDY    71  61  72 W7        30.12F
HOLLOMAN AFB   MOCLDY    67  63  87 E6        30.09F
ALAMOGORDO     PTCLDY    64  63  94 CALM      30.13R
T OR C         PTCLDY    65  59  81 NE8       30.14S

$$
NMZ519>523-230600-
CENTRAL VALLEYS/CENTRAL HIGHLANDS

CITY           SKY/WX    TMP DP  RH WIND       PRES   REMARKS
ALBUQUERQUE    PTCLDY    60  56  86 SW7       30.17R
DOUBLE EAGLE   CLEAR     56  54  91 W7        30.19S
MORIARTY ARPT  FAIR      55  51  87 NE3       30.21R
CLINES CORNERS MOCLDY    54  51  90 W9        30.22S
BELEN          FAIR      59  58  97 CALM      30.16S
SOCORRO        CLOUDY    63  61  95 CALM      30.16S

$$
NMZ524>526-539-540-230600-
SOUTHCENTRAL MOUNTAINS

CITY           SKY/WX    TMP DP  RH WIND       PRES   REMARKS
RUIDOSO        PTCLDY    57  52  82 SW8       30.27S

$$
NMZ527>531-230600-
NORTHEAST HIGHLANDS/NORTHEAST PLAINS

CITY           SKY/WX    TMP DP  RH WIND       PRES   REMARKS
LAS VEGAS      PTCLDY    54  46  74 S10       30.19S
RATON          PTCLDY    60  51  72 CALM      30.13S
CLAYTON        CLOUDY    72  51  47 S9        30.06S

$$
NMZ532>537-230600-
EASTCENTRAL PLAINS

CITY           SKY/WX    TMP DP  RH WIND       PRES   REMARKS
TUCUMCARI      CLOUDY    77  56  48 SW5       30.04R
CANNON AFB     MOCLDY    69  61  76 SW9       30.11R
CLOVIS AIRPORT   N/A     66  61  82 SE3       30.13F

$$
NMZ028-029-538-230600-
SOUTHEAST PLAINS

CITY           SKY/WX    TMP DP  RH WIND       PRES   REMARKS
ROSWELL        CLOUDY    76  58  53 S7        30.06R
ARTESIA        CLOUDY    77  61  57 S9        30.05S
CARLSBAD       CLOUDY    73  64  73 S5        30.03F
HOBBS          LGT RAIN  68  63  83 SE12      30.09S


$$



USA.gov is the U.S. government's official web portal to all federal, state and local government web resources and services.